Time,TemperatureF,DewpointF,PressureIn,WindDirection,WindDirectionDegrees,WindSpeedMPH,WindSpeedGustMPH,Humidity,HourlyPrecipIn,Conditions,Clouds,dailyrainin,SoftwareType,DateUTC
2013-01-31 00:02:00,29.5,25.9,30.28,North,0,2.0,3.0,86,0.00,,,1.76,meteohub,2013-01-31 06:02:00,
2013-01-31 00:12:00,28.6,25.5,30.28,NW,315,2.0,3.0,88,0.00,,,0.00,meteohub,2013-01-31 06:12:00,
2013-01-31 00:22:00,28.8,25.3,30.28,SE,135,2.0,3.0,87,0.00,,,0.00,meteohub,2013-01-31 06:22:00,
2013-01-31 00:32:00,28.6,25.5,30.28,North,0,2.0,3.0,88,0.00,,,0.00,meteohub,2013-01-31 06:32:00,
2013-01-31 00:42:00,28.6,25.2,30.28,SE,135,1.0,2.0,87,0.00,,,0.00,meteohub,2013-01-31 06:42:00,
2013-01-31 00:52:00,28.0,24.6,30.27,NE,45,1.0,2.0,87,0.00,,,0.00,meteohub,2013-01-31 06:52:00,
2013-01-31 01:02:00,27.9,24.8,30.28,East,90,1.0,2.0,88,0.00,,,0.00,meteohub,2013-01-31 07:02:00,
2013-01-31 02:12:00,26.8,23.7,30.27,NW,315,2.0,2.0,88,0.00,,,0.00,meteohub,2013-01-31 08:12:00,
2013-01-31 02:22:00,27.3,24.4,30.27,South,180,1.0,2.0,89,0.00,,,0.00,meteohub,2013-01-31 08:22:00,
2013-01-31 02:32:00,28.6,25.2,30.27,SE,135,4.0,4.0,87,0.00,,,0.00,meteohub,2013-01-31 08:32:00,
2013-01-31 02:50:00,30.0,25.2,30.27,SE,135,1.0,4.0,82,0.00,,,0.00,meteohub,2013-01-31 08:50:00,
2013-01-31 03:02:00,28.0,23.9,30.26,North,0,2.0,2.0,84,0.00,,,0.00,meteohub,2013-01-31 09:02:00,
2013-01-31 03:12:00,28.6,24.4,30.26,NE,45,0.0,2.0,84,0.00,,,0.00,meteohub,2013-01-31 09:12:00,
2013-01-31 03:22:00,28.8,23.9,30.26,North,0,0.0,2.0,82,0.00,,,0.00,meteohub,2013-01-31 09:22:00,
2013-01-31 03:32:00,29.3,24.3,30.26,North,0,2.0,0.0,81,0.00,,,0.00,meteohub,2013-01-31 09:32:00,
2013-01-31 03:42:00,29.1,24.1,30.27,West,270,1.0,2.0,81,0.00,,,0.00,meteohub,2013-01-31 09:42:00,
2013-01-31 03:52:00,29.7,24.6,30.25,SE,135,2.0,2.0,81,0.00,,,0.00,meteohub,2013-01-31 09:52:00,
2013-01-31 04:02:00,29.7,24.3,30.26,SW,225,2.0,3.0,80,0.00,,,0.00,meteohub,2013-01-31 10:02:00,
2013-01-31 04:12:00,30.0,24.1,30.25,East,90,2.0,4.0,78,0.00,,,0.00,meteohub,2013-01-31 10:12:00,
2013-01-31 04:22:00,29.8,23.9,30.26,South,180,4.0,4.0,78,0.00,,,0.00,meteohub,2013-01-31 10:22:00,
2013-01-31 04:32:00,31.8,24.4,30.26,SE,135,4.0,4.0,74,0.00,,,0.00,meteohub,2013-01-31 10:32:00,
2013-01-31 04:42:00,32.2,24.3,30.26,SW,225,4.0,5.0,72,0.00,,,0.00,meteohub,2013-01-31 10:42:00,
2013-01-31 04:52:00,32.4,24.1,30.25,South,180,4.0,6.0,71,0.00,,,0.00,meteohub,2013-01-31 10:52:00,
2013-01-31 05:02:00,32.4,24.3,30.26,South,180,3.0,6.0,72,0.00,,,0.00,meteohub,2013-01-31 11:02:00,
2013-01-31 05:12:00,32.0,24.3,30.26,South,180,2.0,4.0,73,0.00,,,0.00,meteohub,2013-01-31 11:12:00,
2013-01-31 05:22:00,32.0,24.3,30.27,South,180,2.0,3.0,73,0.00,,,0.00,meteohub,2013-01-31 11:22:00,
2013-01-31 05:32:00,30.7,23.4,30.27,South,180,2.0,3.0,74,0.00,,,0.00,meteohub,2013-01-31 11:32:00,
2013-01-31 05:42:00,30.4,23.2,30.27,SE,135,1.0,2.0,74,0.00,,,0.00,meteohub,2013-01-31 11:42:00,
2013-01-31 05:52:00,30.6,23.5,30.27,South,180,3.0,3.0,75,0.00,,,0.00,meteohub,2013-01-31 11:52:00,
2013-01-31 06:02:00,31.3,24.3,30.27,SE,135,2.0,3.0,75,0.00,,,0.00,meteohub,2013-01-31 12:02:00,
2013-01-31 06:12:00,30.7,23.7,30.28,South,180,2.0,2.0,75,0.00,,,0.00,meteohub,2013-01-31 12:12:00,
2013-01-31 06:22:00,31.6,23.7,30.27,SE,135,2.0,4.0,72,0.00,,,0.00,meteohub,2013-01-31 12:22:00,
2013-01-31 06:32:00,31.5,23.5,30.27,SE,135,2.0,4.0,72,0.00,,,0.00,meteohub,2013-01-31 12:32:00,
2013-01-31 06:42:00,31.6,23.4,30.27,SE,135,2.0,3.0,71,0.00,,,0.00,meteohub,2013-01-31 12:42:00,
2013-01-31 06:52:00,31.5,23.2,30.27,SE,135,1.0,3.0,71,0.00,,,0.00,meteohub,2013-01-31 12:52:00,
2013-01-31 07:02:00,31.8,23.2,30.28,SE,135,4.0,4.0,70,0.00,,,0.00,meteohub,2013-01-31 13:02:00,
2013-01-31 07:12:00,32.7,23.4,30.28,SW,225,4.0,4.0,68,0.00,,,0.00,meteohub,2013-01-31 13:12:00,
2013-01-31 07:22:00,33.3,23.5,30.29,South,180,4.0,9.0,67,0.00,,,0.00,meteohub,2013-01-31 13:22:00,
2013-01-31 07:32:00,33.4,23.4,30.29,SE,135,4.0,8.0,66,0.00,,,0.00,meteohub,2013-01-31 13:32:00,
2013-01-31 07:42:00,35.2,24.3,30.29,North,0,2.0,4.0,64,0.00,,,0.00,meteohub,2013-01-31 13:42:00,
2013-01-31 07:52:00,38.3,25.7,30.29,NW,315,2.0,2.0,60,0.00,,,0.00,meteohub,2013-01-31 13:52:00,
2013-01-31 08:02:00,41.2,26.6,30.30,South,180,2.0,2.0,56,0.00,,,0.00,meteohub,2013-01-31 14:02:00,
2013-01-31 08:12:00,40.8,25.5,30.30,South,180,3.0,4.0,54,0.00,,,0.00,meteohub,2013-01-31 14:12:00,
2013-01-31 08:22:00,41.7,26.8,30.30,East,90,3.0,5.0,55,0.00,,,0.00,meteohub,2013-01-31 14:22:00,
2013-01-31 08:32:00,41.0,25.7,30.30,SE,135,8.0,8.0,54,0.00,,,0.00,meteohub,2013-01-31 14:32:00,
2013-01-31 08:42:00,40.8,26.8,30.30,SE,135,8.0,11.0,57,0.00,,,0.00,meteohub,2013-01-31 14:42:00,
2013-01-31 08:52:00,41.2,27.5,30.31,SE,135,8.0,11.0,58,0.00,,,0.00,meteohub,2013-01-31 14:52:00,
2013-01-31 09:02:00,42.1,27.1,30.30,SE,135,7.0,9.0,55,0.00,,,0.00,meteohub,2013-01-31 15:02:00,
2013-01-31 09:12:00,43.5,28.9,30.31,South,180,8.0,8.0,56,0.00,,,0.00,meteohub,2013-01-31 15:12:00,
2013-01-31 09:22:00,45.1,29.5,30.30,East,90,8.0,12.0,54,0.00,,,0.00,meteohub,2013-01-31 15:22:00,
2013-01-31 09:32:00,46.9,28.2,30.31,SE,135,9.0,12.0,48,0.00,,,0.00,meteohub,2013-01-31 15:32:00,
2013-01-31 09:42:00,48.4,29.1,30.30,SE,135,8.0,11.0,47,0.00,,,0.00,meteohub,2013-01-31 15:42:00,
2013-01-31 09:52:00,49.1,29.7,30.29,SE,135,8.0,11.0,47,0.00,,,0.00,meteohub,2013-01-31 15:52:00,
2013-01-31 10:02:00,49.6,29.1,30.29,SE,135,11.0,11.0,45,0.00,,,0.00,meteohub,2013-01-31 16:02:00,
2013-01-31 10:12:00,51.8,28.2,30.29,SE,135,12.0,12.0,40,0.00,,,0.00,meteohub,2013-01-31 16:12:00,
2013-01-31 10:22:00,52.9,29.8,30.29,South,180,5.0,12.0,41,0.00,,,0.00,meteohub,2013-01-31 16:22:00,
2013-01-31 10:32:00,54.9,27.0,30.28,SE,135,11.0,11.0,34,0.00,,,0.00,meteohub,2013-01-31 16:32:00,
2013-01-31 10:42:00,55.4,26.8,30.28,South,180,8.0,13.0,33,0.00,,,0.00,meteohub,2013-01-31 16:42:00,
2013-01-31 10:52:00,55.9,25.0,30.27,SSE,158,13.0,13.0,30,0.00,,,0.00,meteohub,2013-01-31 16:52:00,
2013-01-31 11:02:00,57.0,25.0,30.27,South,180,11.0,15.0,29,0.00,,,0.00,meteohub,2013-01-31 17:02:00,
2013-01-31 11:12:00,58.8,26.6,30.26,SW,225,8.0,14.0,29,0.00,,,0.00,meteohub,2013-01-31 17:12:00,
2013-01-31 11:22:00,59.7,22.8,30.26,South,180,11.0,15.0,24,0.00,,,0.00,meteohub,2013-01-31 17:22:00,
2013-01-31 11:32:00,61.5,25.3,30.26,South,180,9.0,15.0,25,0.00,,,0.00,meteohub,2013-01-31 17:32:00,
2013-01-31 11:42:00,61.7,24.6,30.26,North,0,14.0,14.0,24,0.00,,,0.00,meteohub,2013-01-31 17:42:00,
2013-01-31 11:52:00,62.6,24.3,30.25,SE,135,9.0,17.0,23,0.00,,,0.00,meteohub,2013-01-31 17:52:00,
2013-01-31 12:02:00,63.0,21.2,30.25,East,90,17.0,18.0,20,0.00,,,0.00,meteohub,2013-01-31 18:02:00,
2013-01-31 12:12:00,63.1,18.9,30.24,SE,135,17.0,18.0,18,0.00,,,0.00,meteohub,2013-01-31 18:12:00,
2013-01-31 12:22:00,63.9,19.6,30.23,SE,135,19.0,21.0,18,0.00,,,0.00,meteohub,2013-01-31 18:22:00,
2013-01-31 12:32:00,63.5,15.1,30.23,South,180,22.0,25.0,15,0.00,,,0.00,meteohub,2013-01-31 18:32:00,
2013-01-31 12:42:00,64.8,14.4,30.23,SW,225,19.0,25.0,14,0.01,,,0.01,meteohub,2013-01-31 18:42:00,
2013-01-31 12:52:00,65.3,18.0,30.23,SE,135,17.0,25.0,16,0.01,,,0.01,meteohub,2013-01-31 18:52:00,
2013-01-31 13:02:00,65.7,21.0,30.23,South,180,10.0,21.0,18,0.01,,,0.01,meteohub,2013-01-31 19:02:00,
2013-01-31 13:12:00,65.5,20.8,30.22,SE,135,14.0,20.0,18,0.01,,,0.01,meteohub,2013-01-31 19:12:00,
2013-01-31 13:22:00,65.8,24.8,30.21,SE,135,12.0,20.0,21,0.01,,,0.01,meteohub,2013-01-31 19:22:00,
2013-01-31 13:32:00,65.8,24.8,30.22,South,180,13.0,19.0,21,0.01,,,0.01,meteohub,2013-01-31 19:32:00,
2013-01-31 13:42:00,66.0,22.6,30.22,SE,135,15.0,19.0,19,0.00,,,0.01,meteohub,2013-01-31 19:42:00,
2013-01-31 13:52:00,65.7,23.5,30.21,South,180,17.0,20.0,20,0.00,,,0.01,meteohub,2013-01-31 19:52:00,
2013-01-31 14:02:00,66.4,25.3,30.21,SW,225,14.0,18.0,21,0.00,,,0.01,meteohub,2013-01-31 20:02:00,
2013-01-31 14:12:00,66.7,23.2,30.21,South,180,12.0,20.0,19,0.00,,,0.01,meteohub,2013-01-31 20:12:00,
2013-01-31 14:22:00,67.5,21.2,30.21,South,180,11.0,20.0,17,0.00,,,0.01,meteohub,2013-01-31 20:22:00,
2013-01-31 14:32:00,67.8,21.4,30.21,South,180,10.0,20.0,17,0.00,,,0.01,meteohub,2013-01-31 20:32:00,
2013-01-31 14:42:00,68.5,20.5,30.21,South,180,12.0,17.0,16,0.00,,,0.01,meteohub,2013-01-31 20:42:00,
2013-01-31 14:52:00,68.9,20.8,30.20,South,180,14.0,14.0,16,0.00,,,0.01,meteohub,2013-01-31 20:52:00,
2013-01-31 15:02:00,69.1,18.0,30.20,SE,135,10.0,15.0,14,0.00,,,0.01,meteohub,2013-01-31 21:02:00,
2013-01-31 15:12:00,69.4,19.8,30.21,NNW,338,13.0,15.0,15,0.00,,,0.01,meteohub,2013-01-31 21:12:00,
2013-01-31 15:22:00,68.4,17.2,30.21,West,270,15.0,15.0,14,0.00,,,0.01,meteohub,2013-01-31 21:22:00,
2013-01-31 15:32:00,69.1,18.0,30.22,SW,225,16.0,16.0,14,0.00,,,0.01,meteohub,2013-01-31 21:32:00,
2013-01-31 15:42:00,63.3,27.9,30.23,West,270,17.0,19.0,26,0.00,,,0.01,meteohub,2013-01-31 21:42:00,
2013-01-31 15:52:00,56.7,31.3,30.26,West,270,21.0,24.0,38,0.02,,,0.04,meteohub,2013-01-31 21:52:00,
2013-01-31 16:02:00,55.8,29.8,30.27,WNW,293,23.0,30.0,37,0.11,,,0.04,meteohub,2013-01-31 22:02:00,
2013-01-31 16:12:00,54.5,30.0,30.28,NW,315,18.0,27.0,39,0.15,,,0.17,meteohub,2013-01-31 22:12:00,
2013-01-31 16:22:00,54.1,30.9,30.30,West,270,14.0,27.0,41,0.27,,,0.28,meteohub,2013-01-31 22:22:00,
2013-01-31 16:32:00,52.3,31.6,30.31,NW,315,13.0,22.0,45,0.27,,,0.28,meteohub,2013-01-31 22:32:00,
2013-01-31 16:42:00,50.7,31.3,30.33,SW,225,15.0,25.0,47,0.28,,,0.30,meteohub,2013-01-31 22:42:00,
2013-01-31 16:52:00,49.5,30.6,30.35,West,270,21.0,25.0,48,0.30,,,0.33,meteohub,2013-01-31 22:52:00,
2013-01-31 17:02:00,47.7,29.5,30.36,NW,315,18.0,26.0,49,0.24,,,0.35,meteohub,2013-01-31 23:02:00,
2013-01-31 17:12:00,45.9,28.8,30.38,NW,315,15.0,28.0,51,0.14,,,0.35,meteohub,2013-01-31 23:12:00,
2013-01-31 17:22:00,45.3,29.7,30.38,WNW,293,14.0,28.0,54,0.08,,,0.37,meteohub,2013-01-31 23:22:00,
2013-01-31 17:32:00,44.1,28.9,30.40,NW,315,22.0,25.0,55,0.08,,,0.37,meteohub,2013-01-31 23:32:00,
2013-01-31 17:42:00,42.8,28.6,30.42,West,270,15.0,26.0,57,0.11,,,0.40,meteohub,2013-01-31 23:42:00,
2013-01-31 17:52:00,42.3,28.9,30.42,NW,315,16.0,20.0,59,0.07,,,0.40,meteohub,2013-01-31 23:52:00,
2013-01-31 18:02:00,41.9,28.9,30.44,NW,315,18.0,22.0,60,0.05,,,0.40,meteohub,2013-02-01 00:02:00,
2013-01-31 18:12:00,41.2,28.8,30.45,West,270,21.0,22.0,61,0.04,,,0.40,meteohub,2013-02-01 00:12:00,
2013-01-31 18:22:00,40.3,28.2,30.47,NW,315,17.0,23.0,62,0.04,,,0.40,meteohub,2013-02-01 00:22:00,
2013-01-31 18:32:00,39.4,28.2,30.49,West,270,22.0,24.0,64,0.04,,,0.40,meteohub,2013-02-01 00:32:00,
2013-01-31 18:42:00,37.9,27.7,30.51,NW,315,15.0,25.0,66,0.00,,,0.40,meteohub,2013-02-01 00:42:00,
2013-01-31 18:52:00,37.0,27.1,30.51,NW,315,13.0,25.0,67,0.00,,,0.40,meteohub,2013-02-01 00:52:00,
2013-01-31 19:02:00,36.5,27.0,30.53,North,0,17.0,21.0,68,0.00,,,0.40,meteohub,2013-02-01 01:02:00,
2013-01-31 19:12:00,36.0,26.4,30.54,NW,315,17.0,21.0,68,0.00,,,0.40,meteohub,2013-02-01 01:12:00,
2013-01-31 19:22:00,35.4,26.2,30.55,North,0,12.0,21.0,69,0.00,,,0.40,meteohub,2013-02-01 01:22:00,
2013-01-31 19:32:00,34.9,26.1,30.55,NW,315,11.0,21.0,70,0.00,,,0.40,meteohub,2013-02-01 01:32:00,
2013-01-31 19:42:00,34.5,25.0,30.56,North,0,10.0,21.0,68,0.00,,,0.40,meteohub,2013-02-01 01:42:00,
2013-01-31 20:02:00,33.8,22.5,30.58,NW,315,19.0,21.0,63,0.00,,,0.40,meteohub,2013-02-01 02:02:00,
2013-01-31 20:12:00,32.9,21.4,30.58,NW,315,14.0,21.0,62,0.00,,,0.40,meteohub,2013-02-01 02:12:00,
2013-01-31 20:22:00,32.4,20.8,30.59,NW,315,25.0,25.0,62,0.00,,,0.40,meteohub,2013-02-01 02:22:00,
2013-01-31 20:32:00,32.2,19.9,30.60,NW,315,21.0,25.0,60,0.00,,,0.40,meteohub,2013-02-01 02:32:00,
2013-01-31 20:42:00,31.6,19.4,30.61,North,0,12.0,21.0,60,0.00,,,0.40,meteohub,2013-02-01 02:42:00,
2013-01-31 20:52:00,31.5,18.3,30.62,North,0,17.0,17.0,58,0.00,,,0.40,meteohub,2013-02-01 02:52:00,
2013-01-31 21:02:00,31.3,18.1,30.62,NW,315,11.0,18.0,58,0.00,,,0.40,meteohub,2013-02-01 03:02:00,
2013-01-31 21:12:00,30.9,17.4,30.63,West,270,15.0,18.0,57,0.00,,,0.40,meteohub,2013-02-01 03:12:00,
2013-01-31 21:22:00,30.6,18.0,30.63,West,270,11.0,21.0,59,0.00,,,0.40,meteohub,2013-02-01 03:22:00,
2013-01-31 21:32:00,30.2,18.3,30.63,NW,315,10.0,20.0,61,0.00,,,0.40,meteohub,2013-02-01 03:32:00,
2013-01-31 21:42:00,30.0,17.8,30.62,North,0,17.0,17.0,60,0.00,,,0.40,meteohub,2013-02-01 03:42:00,
2013-01-31 21:52:00,29.7,17.4,30.63,West,270,9.0,17.0,60,0.00,,,0.40,meteohub,2013-02-01 03:52:00,
2013-01-31 22:02:00,29.5,18.1,30.63,NW,315,11.0,16.0,62,0.00,,,0.40,meteohub,2013-02-01 04:02:00,
2013-01-31 22:12:00,29.5,18.1,30.64,NW,315,11.0,13.0,62,0.00,,,0.40,meteohub,2013-02-01 04:12:00,
2013-01-31 22:22:00,28.8,17.1,30.62,West,270,12.0,13.0,61,0.00,,,0.40,meteohub,2013-02-01 04:22:00,
2013-01-31 22:32:00,28.6,17.2,30.63,NW,315,12.0,21.0,62,0.00,,,0.40,meteohub,2013-02-01 04:32:00,
2013-01-31 22:42:00,28.4,17.1,30.63,NW,315,9.0,21.0,62,0.00,,,0.40,meteohub,2013-02-01 04:42:00,
2013-01-31 22:52:00,28.2,16.5,30.64,NW,315,8.0,13.0,61,0.00,,,0.40,meteohub,2013-02-01 04:52:00,
2013-01-31 23:12:00,27.5,15.1,30.64,SW,225,4.0,8.0,59,0.00,,,0.40,meteohub,2013-02-01 05:12:00,
2013-01-31 23:22:00,27.3,14.9,30.64,North,0,6.0,8.0,59,0.00,,,0.40,meteohub,2013-02-01 05:22:00,
2013-01-31 23:32:00,27.3,14.9,30.63,West,270,8.0,11.0,59,0.00,,,0.40,meteohub,2013-02-01 05:32:00,
2013-01-31 23:42:00,27.0,14.9,30.63,NW,315,8.0,11.0,60,0.00,,,0.40,meteohub,2013-02-01 05:42:00,
2013-01-31 23:52:00,27.0,14.9,30.62,North,0,9.0,11.0,60,0.00,,,0.40,meteohub,2013-02-01 05:52:00,